Location: G�ndlingen
(48.0142°N, 7.6396°E)
Time: 19:11:03
(UTC+00:00)

USA 267 - Pass Details

Date: 05 July 2020
Orbit: 1102 x 1106 km, 123.0° (Epoch: 09 August)

Event Time Altitude Azimuth Distance (km) Brightness Sun altitude
Exits shadow 23:21:16 29° 198° (SSW) 1,912 4.0 -19.3°
Maximum altitude 23:23:14 34° 230° (SW) 1,732 4.0 -19.3°
Drops below altitude 10° 23:29:05 10° 294° (WNW) 2,964 5.8 -19.3°
Sets 23:31:51 0° 303° (WNW) 3,926 6.6 -19.3°
